KC3BHK-2 Weather Reports


Display with metric or nautical units.
time (UTC)temp
F
wind
direction
speed
MPH
gust
MPH
rain 1hr
in
rain 24hr
in
rain mn
in
humidity
%
barometer
mb
20260506230944 64 347 0.0 9.0 0.00 0.00 0.00
20260506230439 64 311 2.0 6.0 0.00 0.00 0.00
20260506225930 64 295 2.0 8.0 0.00 0.00 0.00
20260506225425 67 280 3.0 8.0 0.00 0.00 0.00
20260506224921 66 339 2.0 7.0 0.00 0.00 0.00
20260506224416 68 298 3.0 4.0 0.00 0.00 0.00
20260506223406 68 198 3.0 4.0 0.00 0.00 0.00
20260506222859 69 188 2.0 6.0 0.00 0.00 0.00
20260506222354 68 218 2.0 4.0 0.00 0.00 0.00
20260506221849 69 184 2.0 3.0 0.00 0.00 0.00
20260506221344 69 155 0.0 2.0 0.00 0.00 0.00
20260506220840 69 219 0.0 3.0 0.00 0.00 0.00
20260506220335 69 186 2.0 3.0 0.00 0.00 0.00
20260506215827 69 153 1.0 4.0 0.00 0.00 0.00
20260506215321 68 212 3.0 4.0 0.00 0.00 0.00
20260506214815 67 194 3.0 4.0 0.00 0.00 0.00
20260506214310 67 240 3.0 5.0 0.00 0.00 0.00
20260506213806 68 198 2.0 5.0 0.00 0.00 0.00
20260506213301 68 215 3.0 4.0 0.00 0.00 0.00
20260506212753 68 214 3.0 5.0 0.00 0.00 0.00
20260506212248 69 190 2.0 4.0 0.00 0.00 0.00
20260506211743 68 139 2.0 4.0 0.00 0.00 0.00
20260506211239 67 153 2.0 4.0 0.00 0.00 0.00
20260506210733 66 143 2.0 4.0 0.00 0.00 0.00
20260506210228 65 169 2.0 6.0 0.00 0.00 0.00
20260506205719 65 142 6.0 4.0 0.00 0.00 0.00
20260506205214 66 176 0.0 0.0 0.00 0.00 0.00
20260506204710 66 176 0.0 0.0 0.00 0.00 0.00
20260506204204 66 176 0.0 0.0 0.00 0.00 0.00
20260506203658 66 176 0.0 3.0 0.00 0.00 0.00
20260506203153 66 195 2.0 3.0 0.00 0.00 0.00
20260506202645 66 138 0.0 2.0 0.00 0.00 0.00
20260506202140 67 155 0.0 2.0 0.00 0.00 0.00
20260506201636 66 193 2.0 4.0 0.00 0.00 0.00
20260506201131 67 148 2.0 6.0 0.00 0.00 0.00
20260506200626 65 153 3.0 5.0 0.00 0.00 0.00
20260506200121 66 131 4.0 8.0 0.00 0.00 0.00
20260506195614 67 153 4.0 8.0 0.00 0.00 0.00
20260506195108 68 148 7.0 6.0 0.00 0.00 0.00
20260506194603 68 170 5.0 7.0 0.00 0.00 0.00
20260506194058 68 173 5.0 7.0 0.00 0.00 0.00
20260506193049 67 105 6.0 9.0 0.00 0.00 0.00
20260506192541 68 177 7.0 9.0 0.00 0.00 0.00
20260506192036 68 179 4.0 10.0 0.00 0.00 0.00
20260506191532 69 141 9.0 11.0 0.00 0.00 0.00
20260506191027 69 186 5.0 12.0 0.00 0.00 0.00
20260506190522 70 139 4.0 9.0 0.00 0.00 0.00
20260506190018 70 181 6.0 10.0 0.00 0.00 0.00
20260506185510 69 156 9.0 10.0 0.00 0.00 0.00
20260506184500 69 176 5.0 8.0 0.00 0.00 0.00
20260506183955 69 166 6.0 10.0 0.00 0.00 0.00
20260506183450 67 208 6.0 9.0 0.00 0.00 0.00
20260506182946 67 186 3.0 11.0 0.00 0.00 0.00
20260506182438 67 174 7.0 10.0 0.00 0.00 0.00
20260506181933 67 165 7.0 10.0 0.00 0.00 0.00
20260506181428 66 215 6.0 11.0 0.00 0.00 0.00
20260506180922 66 198 6.0 11.0 0.00 0.00 0.00
20260506180417 67 205 5.0 9.0 0.00 0.00 0.00
20260506175912 66 173 6.0 10.0 0.00 0.00 0.00
20260506175404 66 158 6.0 10.0 0.00 0.00 0.00
20260506174858 66 188 7.0 11.0 0.00 0.00 0.00
20260506174354 66 172 4.0 11.0 0.00 0.00 0.00
20260506173849 65 195 5.0 13.0 0.00 0.00 0.00
20260506173344 66 187 6.0 11.0 0.00 0.00 0.00
20260506172840 66 179 6.0 10.0 0.00 0.00 0.00
20260506172332 66 172 6.0 13.0 0.00 0.00 0.00
20260506171827 68 158 7.0 15.0 0.00 0.00 0.00
20260506171323 68 148 8.0 15.0 0.00 0.00 0.00
20260506170818 67 169 10.0 17.0 0.00 0.00 0.00
20260506170313 66 191 8.0 16.0 0.00 0.00 0.00
20260506165809 67 173 7.0 16.0 0.00 0.00 0.00
20260506165301 67 174 9.0 14.0 0.00 0.00 0.00
20260506164756 67 174 9.0 17.0 0.00 0.00 0.00
20260506164252 66 163 13.0 14.0 0.00 0.00 0.00
20260506163747 67 197 6.0 13.0 0.00 0.00 0.00
20260506163242 65 170 8.0 11.0 0.00 0.00 0.00
20260506162737 65 145 4.0 11.0 0.00 0.00 0.00
20260506162229 65 132 5.0 11.0 0.00 0.00 0.00
20260506161220 63 163 9.0 16.0 0.00 0.00 0.00
20260506160715 64 186 8.0 12.0 0.00 0.00 0.00
20260506160210 62 180 6.0 12.0 0.00 0.00 0.00
20260506155704 63 114 4.0 12.0 0.00 0.00 0.00
20260506155156 62 174 7.0 13.0 0.00 0.00 0.00
20260506154650 61 191 9.0 14.0 0.00 0.00 0.00
20260506154145 62 169 12.0 13.0 0.00 0.00 0.00
20260506153641 61 200 9.0 15.0 0.00 0.00 0.00
20260506153136 62 177 7.0 14.0 0.00 0.00 0.00
20260506152631 61 162 12.0 19.0 0.00 0.00 0.00
20260506152123 61 90 9.0 16.0 0.00 0.00 0.00
20260506151619 62 59 4.0 17.0 0.00 0.00 0.00
20260506151114 62 117 14.0 15.0 0.00 0.00 0.00
20260506150609 60 136 10.0 20.0 0.00 0.00 0.00
20260506150104 62 173 9.0 20.0 0.00 0.00 0.00
20260506145559 60 173 9.0 15.0 0.00 0.00 0.00
20260506144546 60 158 8.0 15.0 0.00 0.00 0.00
20260506144041 61 141 9.0 15.0 0.00 0.00 0.00
20260506143536 60 146 8.0 13.0 0.00 0.00 0.00
20260506143032 60 174 8.0 12.0 0.00 0.00 0.00
20260506142527 61 155 8.0 13.0 0.00 0.00 0.00
20260506142019 60 131 9.0 14.0 0.00 0.00 0.00
20260506141514 60 145 7.0 11.0 0.00 0.00 0.00
20260506141009 60 176 7.0 18.0 0.00 0.00 0.00
20260506140504 60 184 7.0 12.0 0.00 0.00 0.00
20260506135959 59 167 5.0 16.0 0.00 0.00 0.00
20260506135455 60 177 10.0 15.0 0.00 0.00 0.00
20260506134947 61 159 7.0 11.0 0.00 0.00 0.00
20260506134442 61 156 8.0 12.0 0.00 0.00 0.00
20260506133432 60 146 5.0 12.0 0.00 0.00 0.00
20260506132928 60 158 11.0 12.0 0.00 0.00 0.00
20260506132423 60 160 9.0 12.0 0.00 0.00 0.00
20260506131915 59 135 9.0 13.0 0.00 0.00 0.00
20260506131410 60 162 6.0 11.0 0.00 0.00 0.00
20260506130906 60 174 6.0 10.0 0.00 0.00 0.00
20260506130401 61 167 6.0 9.0 0.00 0.00 0.00
20260506125856 60 176 7.0 10.0 0.00 0.00 0.00
20260506125351 60 132 9.0 8.0 0.00 0.00 0.00
20260506124843 60 170 4.0 8.0 0.00 0.00 0.00
20260506124338 60 190 5.0 8.0 0.00 0.00 0.00
20260506123834 61 217 5.0 7.0 0.00 0.00 0.00
20260506123329 60 163 4.0 8.0 0.00 0.00 0.00
20260506122824 59 145 3.0 6.0 0.00 0.00 0.00
20260506122319 60 132 3.0 5.0 0.00 0.00 0.00
20260506121812 60 127 3.0 6.0 0.00 0.00 0.00
20260506121307 60 173 5.0 7.0 0.00 0.00 0.00
20260506120802 60 132 4.0 11.0 0.00 0.00 0.00
20260506120257 59 167 5.0 8.0 0.00 0.00 0.00
20260506115753 61 174 4.0 10.0 0.00 0.00 0.00
20260506115248 61 167 7.0 8.0 0.00 0.00 0.00
20260506114740 60 180 4.0 10.0 0.00 0.00 0.00
20260506114235 62 160 5.0 9.0 0.00 0.00 0.00
20260506113730 61 158 5.0 9.0 0.00 0.00 0.00
20260506113226 61 191 6.0 10.0 0.00 0.00 0.00
20260506112720 62 170 5.0 10.0 0.00 0.00 0.00
20260506112215 63 156 6.0 11.0 0.00 0.00 0.00
20260506111707 63 174 6.0 7.0 0.00 0.00 0.00
20260506111202 61 149 5.0 9.0 0.00 0.00 0.00
20260506110658 62 124 6.0 8.0 0.00 0.00 0.00
20260506110153 62 166 7.0 11.0 0.00 0.00 0.00
20260506105648 62 181 6.0 7.0 0.00 0.00 0.00
20260506105143 62 169 5.0 9.0 0.00 0.00 0.00
20260506104635 63 145 3.0 11.0 0.00 0.00 0.00
20260506104131 64 153 4.0 10.0 0.00 0.00 0.00
20260506103626 64 184 5.0 9.0 0.00 0.00 0.00
20260506103121 63 174 4.0 9.0 0.00 0.00 0.00
20260506102616 64 181 6.0 9.0 0.00 0.00 0.00
20260506102111 62 165 7.0 12.0 0.00 0.00 0.00
20260506101604 62 148 10.0 12.0 0.00 0.00 0.00
20260506101059 63 173 6.0 10.0 0.00 0.00 0.00
20260506100554 63 205 6.0 13.0 0.00 0.00 0.00
20260506100049 64 160 10.0 13.0 0.00 0.00 0.00
20260506095544 65 212 9.0 13.0 0.00 0.00 0.00
20260506095040 63 170 9.0 12.0 0.00 0.00 0.00
20260506094532 65 176 9.0 12.0 0.00 0.00 0.00
20260506094027 64 162 9.0 18.0 0.00 0.00 0.00
20260506093522 66 173 9.0 12.0 0.00 0.00 0.00
20260506093018 67 210 6.0 16.0 0.00 0.00 0.00
20260506092513 66 153 11.0 18.0 0.00 0.00 0.00
20260506092008 66 165 11.0 20.0 0.00 0.00 0.00
20260506091501 67 190 10.0 13.0 0.00 0.00 0.00
20260506090956 67 122 10.0 20.0 0.00 0.00 0.00
20260506090451 67 166 10.0 17.0 0.00 0.00 0.00
20260506085947 66 162 7.0 15.0 0.00 0.00 0.00
20260506085442 67 173 9.0 18.0 0.00 0.00 0.00
20260506084936 68 169 10.0 15.0 0.00 0.00 0.00
20260506084428 68 142 6.0 17.0 0.00 0.00 0.00
20260506083924 67 141 8.0 14.0 0.00 0.00 0.00
20260506083419 67 155 6.0 13.0 0.00 0.00 0.00
20260506082914 67 172 9.0 15.0 0.00 0.00 0.00
20260506082410 66 152 7.0 14.0 0.00 0.00 0.00
20260506081905 67 187 7.0 17.0 0.00 0.00 0.00
20260506081357 68 172 8.0 13.0 0.00 0.00 0.00
20260506080852 66 146 8.0 13.0 0.00 0.00 0.00
20260506080348 66 183 8.0 14.0 0.00 0.00 0.00
20260506073315 67 155 5.0 13.0 0.00 0.00 0.00
20260506072810 66 143 9.0 13.0 0.00 0.00 0.00
20260506072306 67 150 6.0 13.0 0.00 0.00 0.00
20260506071800 67 177 7.0 15.0 0.00 0.00 0.00
20260506071252 68 162 4.0 16.0 0.00 0.00 0.00
20260506070748 68 134 10.0 17.0 0.00 0.00 0.00
20260506070243 68 145 7.0 15.0 0.00 0.00 0.00
20260506062203 68 150 5.0 13.0 0.00 0.00 0.00
20260506061657 67 165 8.0 12.0 0.00 0.00 0.00
20260506061150 67 173 3.0 14.0 0.00 0.00 0.00
20260506060645 69 186 7.0 9.0 0.00 0.00 0.00
20260506060140 68 204 7.0 11.0 0.00 0.00 0.00
20260506051046 68 131 6.0 9.0 0.00 0.00 0.00
20260506050541 69 135 9.0 12.0 0.00 0.00 0.00
20260506045026 69 155 6.0 12.0 0.00 0.00 0.00
20260506044014 69 149 7.0 15.0 0.00 0.00 0.00
20260506043509 69 176 9.0 12.0 0.00 0.00 0.00
20260506043004 68 195 10.0 12.0 0.00 0.00 0.00
20260506042459 69 173 9.0 10.0 0.00 0.00 0.00
20260506041955 69 131 5.0 14.0 0.00 0.00 0.00
20260506041450 69 173 8.0 11.0 0.00 0.00 0.00
20260506040942 69 190 5.0 9.0 0.00 0.00 0.00
20260506040438 68 134 5.0 10.0 0.00 0.00 0.00
20260506035933 69 143 7.0 11.0 0.00 0.00 0.00
20260506035428 69 156 4.0 12.0 0.00 0.00 0.00
20260506034924 69 177 4.0 16.0 0.00 0.00 0.00
20260506034419 69 159 9.0 10.0 0.00 0.00 0.00
20260506033912 69 141 8.0 14.0 0.00 0.00 0.00
20260506033405 69 138 9.0 11.0 0.00 0.00 0.00
20260506032900 69 179 7.0 11.0 0.00 0.00 0.00
20260506032356 69 132 6.0 9.0 0.00 0.00 0.00
20260506031851 69 132 6.0 9.0 0.00 0.00 0.00
20260506031346 69 183 8.0 10.0 0.00 0.00 0.00
20260506030839 69 143 5.0 12.0 0.00 0.00 0.00
20260506030334 70 148 9.0 10.0 0.00 0.00 0.00
20260506025829 69 183 6.0 10.0 0.00 0.00 0.00
20260506025325 69 179 10.0 10.0 0.00 0.00 0.00
20260506024820 70 172 5.0 9.0 0.00 0.00 0.00
20260506024315 69 148 4.0 12.0 0.00 0.00 0.00
20260506023808 69 179 9.0 11.0 0.00 0.00 0.00
20260506023303 70 174 7.0 11.0 0.00 0.00 0.00
20260506022759 69 159 6.0 12.0 0.00 0.00 0.00
20260506022254 70 155 4.0 11.0 0.00 0.00 0.00
20260506021749 70 183 4.0 9.0 0.00 0.00 0.00
20260506021245 71 163 7.0 11.0 0.00 0.00 0.00
20260506020737 70 170 8.0 8.0 0.00 0.00 0.00
20260506020232 71 121 4.0 9.0 0.00 0.00 0.00
20260506015728 71 162 3.0 8.0 0.00 0.00 0.00
20260506015223 70 143 5.0 10.0 0.00 0.00 0.00
20260506014214 72 167 8.0 11.0 0.00 0.00 0.00
20260506013706 72 143 11.0 8.0 0.00 0.00 0.00
20260506013202 72 141 6.0 11.0 0.00 0.00 0.00
20260506012657 72 153 5.0 10.0 0.00 0.00 0.00
20260506012152 73 155 7.0 9.0 0.00 0.00 0.00
20260506011648 73 143 7.0 9.0 0.00 0.00 0.00
20260506011143 73 149 7.0 12.0 0.00 0.00 0.00
20260506010634 73 153 7.0 12.0 0.00 0.00 0.00
20260506010130 73 167 4.0 10.0 0.00 0.00 0.00
20260506005625 74 193 6.0 13.0 0.00 0.00 0.00
20260506005120 75 181 7.0 13.0 0.00 0.00 0.00
20260506004616 75 160 8.0 12.0 0.00 0.00 0.00
20260506004111 74 122 6.0 11.0 0.00 0.00 0.00
20260506003603 74 187 9.0 14.0 0.00 0.00 0.00
20260506003059 76 193 10.0 13.0 0.00 0.00 0.00
20260506002554 75 172 7.0 14.0 0.00 0.00 0.00
20260506002049 76 166 9.0 15.0 0.00 0.00 0.00
20260506001545 76 170 7.0 14.0 0.00 0.00 0.00
20260506001040 77 180 5.0 16.0 0.00 0.00 0.00
20260506000533 76 174 11.0 14.0 0.00 0.00 0.00
20260506000028 75 159 10.0 17.0 0.00 0.00 0.00
20260505235523 76 163 14.0 14.0 0.00 0.00 0.00
20260505235019 77 158 8.0 16.0 0.00 0.00 0.00
20260505234514 77 156 7.0 17.0 0.00 0.00 0.00
20260505234008 77 150 11.0 14.0 0.00 0.00 0.00
20260505233501 78 177 10.0 14.0 0.00 0.00 0.00
20260505232956 78 176 8.0 17.0 0.00 0.00 0.00
20260505232452 77 169 7.0 15.0 0.00 0.00 0.00
20260505231947 78 188 9.0 17.0 0.00 0.00 0.00
20260505231442 78 172 17.0 18.0 0.00 0.00 0.00